Regional Weather Roundup
Issued by NWS Little Rock, AR

Home | Current Version | Previous Version | Text Only | Print | Product List | Glossary Off
Versions: 1 2 3 4 5 6 7 8 9 10 11 12 13 14 15 16 17 18 19 20 21 22 23 24 25 26 27 28 29 30 31 32 33 34 35 36 37 38 39 40 41 42 43 44 45 46 47 48

000
ASUS44 KLZK 220405
RWRLZK

WEATHER ROUNDUP FOR ARKANSAS
NATIONAL WEATHER SERVICE LITTLE ROCK AR
1100 PM CDT THU MAY 21 2015

NOTE: "FAIR" INDICATES FEW OR NO CLOUDS BELOW 12,000 FEET WITH NO
SIGNIFICANT WEATHER AND/OR OBSTRUCTIONS TO VISIBILITY.

ARZ001-003-010-029-220500-
NORTHWEST ARKANSAS

CITY           SKY/WX    TMP DP  RH WIND       PRES   REMARKS
FAYETTEVILLE   CLEAR     49  48  97 CALM      30.23R
FORT SMITH     CLEAR     58  51  78 E6        30.20R
HARRISON       CLEAR     48  46  93 N5        30.23R
BENTONVILLE    CLEAR    N/A N/A N/A CALM      30.23S
ROGERS         CLEAR     52  46  80 CALM      30.24R
SILOAM SPGS    CLEAR     52  43  71 NE5       30.24S
HIGHFILL       CLEAR     50  46  86 N3        30.22R
$$

ARZ004-005-016-220500-
NORTH CENTRAL ARKANSAS

CITY           SKY/WX    TMP DP  RH WIND       PRES   REMARKS
BATESVILLE     CLEAR     54  48  82 E5        30.24R
FLIPPIN        CLEAR     52  48  87 CALM      30.21S
MTN HOME       CLEAR     50  46  86 CALM      30.22R
$$

ARZ040-041-220500-
WEST CENTRAL ARKANSAS

CITY           SKY/WX    TMP DP  RH WIND       PRES   REMARKS
MENA           FAIR      54  52  94 CALM      30.21S
MOUNT IDA      CLEAR     54  51  90 CALM      30.19R
$$

ARZ009-017-025-026-028-220500-
NORTHEAST ARKANSAS

CITY           SKY/WX    TMP DP  RH WIND       PRES   REMARKS
CORNING          N/A     54  48  82 SE7       30.25R
JONESBORO      CLEAR     49  48  97 CALM      30.24R
NEWPORT        CLEAR     55  50  83 E8        30.25R
WALNUT RIDGE   CLEAR     54  46  76 E8        30.24R
BLYTHEVILLE    CLEAR     50  49  96 N5        30.24R
$$

ARZ022-023-033-042-044-220500-
CENTRAL ARKANSAS

CITY           SKY/WX    TMP DP  RH WIND       PRES   REMARKS
LITTLE ROCK    CLEAR     56  50  80 E5        30.23R
N LITTLE ROCK  CLEAR     56  53  90 E5        30.23R
JACKSONVILLE   CLEAR     53  51  92 NE1       30.22R
SEARCY         CLEAR     55  50  83 E3        30.25R
HOT SPRINGS    CLEAR     55  51  86 E5        30.22R
RUSSELLVILLE   CLEAR     57  49  74 E3        30.22R
CLINTON        FAIR      50  50 100 CALM      30.24S
$$

ARZ036-220500-
EAST ARKANSAS

CITY           SKY/WX    TMP DP  RH WIND       PRES   REMARKS
WEST MEMPHIS   CLEAR     51  48  89 CALM      30.22R
$$

ARZ050-053-066-070-073-220500-
SOUTHWEST ARKANSAS

CITY           SKY/WX    TMP DP  RH WIND       PRES   REMARKS
ARKADELPHIA    FAIR      58  57  96 CALM      30.23R
CAMDEN         CLEAR     54  50  87 CALM      30.22R
TEXARKANA      CLEAR     57  55  93 SE3       30.20R
EL DORADO      CLEAR     55  52  89 CALM      30.22R
DE QUEEN       PTCLDY    58  56  93 CALM      30.19R
$$

ARZ056-057-069-220500-
SOUTHEAST ARKANSAS

CITY           SKY/WX    TMP DP  RH WIND       PRES   REMARKS
PINE BLUFF     CLEAR     54  49  83 E7        30.23R
STUTTGART      CLEAR     54  46  76 E6        30.23R
MONTICELLO     PTCLDY    52  50  93 NE7       30.22R

$$





USA.gov is the U.S. government's official web portal to all federal, state and local government web resources and services.